TimeMDT,TemperatureF,Dew PointF,Humidity,Sea Level PressureIn,VisibilityMPH,Wind Direction,Wind SpeedMPH,Gust SpeedMPH,PrecipitationIn,Events,Conditions,WindDirDegrees,DateUTC
12:53 AM,73.9,46.9,38,29.92,10.0,SW,5.8,-,N/A,,Smoke,220,2013-08-19 06:53:00
1:53 AM,72.0,51.1,48,29.92,10.0,Calm,Calm,-,N/A,,Smoke,0,2013-08-19 07:53:00
2:53 AM,68.0,50.0,52,29.93,10.0,Calm,Calm,-,N/A,,Smoke,0,2013-08-19 08:53:00
3:53 AM,68.0,46.9,47,29.94,10.0,Calm,Calm,-,N/A,,Smoke,0,2013-08-19 09:53:00
4:53 AM,68.0,46.9,47,29.93,10.0,Calm,Calm,-,N/A,,Smoke,0,2013-08-19 10:53:00
5:53 AM,64.0,42.1,45,29.94,10.0,SSE,4.6,-,N/A,,Smoke,150,2013-08-19 11:53:00
6:53 AM,63.0,45.0,52,29.95,10.0,South,3.5,-,N/A,,Smoke,180,2013-08-19 12:53:00
7:53 AM,66.0,45.0,47,29.96,10.0,South,4.6,-,N/A,,Smoke,180,2013-08-19 13:53:00
8:53 AM,70.0,46.0,42,29.97,10.0,SSW,3.5,-,N/A,,Smoke,200,2013-08-19 14:53:00
9:53 AM,73.0,48.9,42,29.98,10.0,WSW,3.5,-,N/A,,Smoke,240,2013-08-19 15:53:00
10:53 AM,77.0,46.9,34,29.98,10.0,West,6.9,-,N/A,,Smoke,280,2013-08-19 16:53:00
11:53 AM,81.0,46.0,29,29.98,10.0,NNW,8.1,-,N/A,,Smoke,330,2013-08-19 17:53:00
12:53 PM,84.9,46.0,26,29.96,10.0,WNW,8.1,-,N/A,,Smoke,290,2013-08-19 18:53:00
1:53 PM,89.1,46.9,23,29.94,10.0,NW,6.9,-,N/A,,Smoke,320,2013-08-19 19:53:00
2:53 PM,93.0,45.0,19,29.91,10.0,WNW,9.2,-,N/A,,Smoke,290,2013-08-19 20:53:00
3:53 PM,93.9,39.9,15,29.89,10.0,NNW,9.2,-,N/A,,Smoke,330,2013-08-19 21:53:00
4:53 PM,93.9,37.9,14,29.87,10.0,NW,9.2,-,N/A,,Smoke,320,2013-08-19 22:53:00
5:53 PM,93.9,36.0,13,29.86,10.0,NW,8.1,-,N/A,,Smoke,320,2013-08-19 23:53:00
6:53 PM,93.9,36.0,13,29.84,10.0,NNW,6.9,-,N/A,,Smoke,330,2013-08-20 00:53:00
7:53 PM,93.0,36.0,13,29.82,10.0,Calm,Calm,-,N/A,,Smoke,0,2013-08-20 01:53:00
8:53 PM,89.1,39.0,17,29.81,10.0,Calm,Calm,-,N/A,,Smoke,0,2013-08-20 02:53:00
9:53 PM,82.9,39.9,22,29.82,10.0,Calm,Calm,-,N/A,,Smoke,0,2013-08-20 03:53:00
10:53 PM,77.0,35.1,22,29.84,10.0,Calm,Calm,-,N/A,,Smoke,0,2013-08-20 04:53:00
11:53 PM,75.9,37.0,24,29.84,10.0,SE,3.5,-,N/A,,Smoke,130,2013-08-20 05:53:00